Change the Weather History Date:

Thursday, January 23, 2014

  Actual Average Record
Temperature  
Mean Temperature 10 °F -  
Max Temperature 19 °F 45 °F 73 °F (1967)
Min Temperature 1 °F 23 °F -5 °F (1963)
Degree Days  
Heating Degree Days 55    
Moisture  
Dew Point -5 °F    
Average Humidity 49    
Maximum Humidity 80    
Minimum Humidity 32    
Precipitation  
Precipitation 0.00 in - - ()
Sea Level Pressure  
Sea Level Pressure 30.77 in    
Wind  
Wind Speed 11 mph (North)    
Max Wind Speed 18 mph    
Max Gust Speed 28 mph    
Visibility 10 miles    
Events      
Averages and records for this station are not official NWS values.
T = Trace of Precipitation, MM = Missing Value Source: NWS Daily Summary

Daily Weather History Graph

Daily Weather History Graph

Search for Another Location

Airport or City:

Trip Planner

Search our weather history database for the weather conditions in past years. The results will help you decide how hot, cold, wet, or windy it might be!

Date:

Astronomy

Jan. 23, 2014 Rise Set
Actual Time 7:31 AM CST 5:36 PM CST
Civil Twilight 7:03 AM CST 6:04 PM CST
Nautical Twilight 6:31 AM CST 6:36 PM CST
Astronomical Twilight 6:00 AM CST 7:07 PM CST
Moon No Moon Rise 11:17 AM CST (1/23)
Length of Visible Light 11h 01m
Length of Day
10h 05m
Waning Gibbous, 55% of the Moon is Illuminated
Jan 23
Waning Gibbous
Jan 23
Last Quarter
Jan 30
New
Feb 6
First Quarter
Feb 14
Full

Hourly Weather History & Observations

Time (CST) Temp. Windchill Dew Point Humidity Pressure Visibility Wind Dir Wind Speed Gust Speed Precip Events Conditions
12:52 AM 18.0 °F 2.2 °F -5.1 °F 36% 30.51 in 10.0 mi North 18.4 mph 27.6 mph N/A   Clear
1:52 AM 16.0 °F 2.3 °F -6.0 °F 38% 30.54 in 10.0 mi North 12.7 mph 23.0 mph N/A   Clear
2:52 AM 14.0 °F -0.8 °F -6.0 °F 41% 30.58 in 10.0 mi North 13.8 mph 20.7 mph N/A   Mostly Cloudy
3:52 AM 10.9 °F -4.7 °F -7.1 °F 44% 30.61 in 10.0 mi North 13.8 mph 23.0 mph N/A   Partly Cloudy
4:52 AM 10.0 °F -4.5 °F -8.0 °F 44% 30.65 in 10.0 mi North 11.5 mph 18.4 mph N/A   Clear
5:52 AM 9.0 °F -3.2 °F -8.0 °F 46% 30.69 in 10.0 mi North 8.1 mph - N/A   Clear
6:52 AM 8.1 °F -6.2 °F -7.1 °F 50% 30.73 in 10.0 mi North 10.4 mph 16.1 mph N/A   Scattered Clouds
7:52 AM 9.0 °F -5.9 °F -8.0 °F 46% 30.77 in 10.0 mi North 11.5 mph 21.9 mph N/A   Clear
8:52 AM 9.0 °F -7.3 °F -5.1 °F 53% 30.81 in 10.0 mi North 13.8 mph 20.7 mph N/A   Mostly Cloudy
9:52 AM 10.0 °F -5.2 °F -7.1 °F 46% 30.84 in 10.0 mi North 12.7 mph 23.0 mph N/A   Scattered Clouds
10:52 AM 12.0 °F -0.4 °F -7.1 °F 42% 30.87 in 10.0 mi North 9.2 mph 20.7 mph N/A   Partly Cloudy
11:52 AM 15.1 °F 2.5 °F -5.1 °F 41% 30.87 in 10.0 mi North 10.4 mph 18.4 mph N/A   Clear
12:52 PM 17.1 °F 2.5 °F -5.1 °F 37% 30.85 in 10.0 mi North 15.0 mph 19.6 mph N/A   Clear
1:52 PM 18.0 °F 4.8 °F -5.1 °F 36% 30.84 in 10.0 mi North 12.7 mph - N/A   Clear
2:52 PM 18.0 °F 6.1 °F -5.1 °F 36% 30.83 in 10.0 mi NNW 10.4 mph - N/A   Clear
3:52 PM 19.9 °F 9.3 °F -6.0 °F 32% 30.82 in 10.0 mi North 9.2 mph - N/A   Clear
4:52 PM 18.0 °F 6.1 °F -6.0 °F 35% 30.83 in 10.0 mi North 10.4 mph - N/A   Clear
5:52 PM 12.9 °F 6.9 °F -6.0 °F 43% 30.84 in 10.0 mi North 3.5 mph - N/A   Clear
6:52 PM 10.9 °F - -4.0 °F 51% 30.84 in 10.0 mi Calm Calm - N/A   Clear
7:52 PM 5.0 °F - -2.0 °F 73% 30.85 in 10.0 mi Calm Calm - N/A   Clear
8:52 PM 3.9 °F - -2.0 °F 76% 30.84 in 10.0 mi Calm Calm - N/A   Clear
9:52 PM 1.9 °F - -2.9 °F 80% 30.83 in 10.0 mi Calm Calm - N/A   Clear
10:52 PM 1.9 °F - -4.0 °F 76% 30.83 in 10.0 mi Calm Calm - N/A   Clear
11:52 PM 1.9 °F - -4.0 °F 76% 30.81 in 10.0 mi Calm Calm - N/A   Clear